Time,TemperatureF,DewpointF,PressureIn,WindDirection,WindDirectionDegrees,WindSpeedMPH,WindSpeedGustMPH,Humidity,HourlyPrecipIn,Conditions,Clouds,dailyrainin,SoftwareType,DateUTC
2013-05-09 00:03:00,51.0,50.0,29.97,ESE,109,0.0,9.0,96,0.00,,,0.76,,2013-05-09 04:03:00,
2013-05-09 00:13:00,51.0,50.0,29.97,ESE,109,0.0,9.0,96,0.00,,,0.76,,2013-05-09 04:13:00,
2013-05-09 00:23:00,51.0,50.0,29.97,ESE,109,0.0,9.0,96,0.00,,,0.76,,2013-05-09 04:23:00,
2013-05-09 00:33:00,50.0,49.0,29.96,SSW,205,0.0,6.0,97,0.00,,,0.65,,2013-05-09 04:33:00,
2013-05-09 00:43:00,50.0,49.0,29.96,SSW,205,0.0,6.0,97,0.00,,,0.65,,2013-05-09 04:43:00,
2013-05-09 00:53:00,50.0,49.0,29.96,SSW,205,0.0,3.0,97,0.00,,,0.61,,2013-05-09 04:53:00,
2013-05-09 01:02:00,50.0,49.0,29.96,SSW,205,0.0,0.0,98,0.00,,,0.56,,2013-05-09 05:02:00,
2013-05-09 01:12:00,50.0,49.0,29.96,SSW,205,0.0,0.0,98,0.00,,,0.56,,2013-05-09 05:12:00,
2013-05-09 01:22:00,50.0,49.0,29.96,SSW,205,0.0,0.0,98,0.00,,,0.54,,2013-05-09 05:22:00,
2013-05-09 01:32:00,49.0,49.0,29.95,SSW,205,0.0,0.0,99,0.00,,,0.51,,2013-05-09 05:32:00,
2013-05-09 01:42:00,49.0,49.0,29.95,SSW,205,0.0,0.0,99,0.00,,,0.51,,2013-05-09 05:42:00,
2013-05-09 01:51:00,49.0,49.0,29.95,SSW,205,0.0,0.0,99,0.00,,,0.50,,2013-05-09 05:51:00,
2013-05-09 02:02:00,49.0,49.0,29.94,SSW,205,0.0,0.0,99,0.00,,,0.46,,2013-05-09 06:02:00,
2013-05-09 02:12:00,49.0,49.0,29.94,SSW,205,0.0,0.0,99,0.00,,,0.46,,2013-05-09 06:12:00,
2013-05-09 02:22:00,50.0,50.0,29.94,NNW,329,1.0,4.0,100,0.00,,,0.43,,2013-05-09 06:22:00,
2013-05-09 02:32:00,50.0,50.0,29.94,NNW,329,1.0,4.0,100,0.00,,,0.43,,2013-05-09 06:32:00,
2013-05-09 02:42:00,50.0,50.0,29.94,NNW,329,1.0,4.0,100,0.00,,,0.43,,2013-05-09 06:42:00,
2013-05-09 02:52:00,50.0,50.0,29.94,NNW,329,1.0,4.0,100,0.00,,,0.43,,2013-05-09 06:52:00,
2013-05-09 03:01:00,52.0,51.0,29.93,West,261,13.0,15.0,95,0.02,,,0.36,,2013-05-09 07:01:00,
2013-05-09 03:12:00,52.0,51.0,29.93,West,261,13.0,15.0,95,0.02,,,0.36,,2013-05-09 07:12:00,
2013-05-09 03:22:00,52.0,51.0,29.93,WNW,290,4.0,13.0,96,0.02,,,0.35,,2013-05-09 07:22:00,
2013-05-09 03:32:00,52.0,51.0,29.92,WNW,284,10.0,12.0,95,0.01,,,0.33,,2013-05-09 07:32:00,
2013-05-09 03:42:00,52.0,51.0,29.92,WNW,284,10.0,12.0,95,0.01,,,0.33,,2013-05-09 07:42:00,
2013-05-09 03:52:00,52.0,51.0,29.92,WNW,284,10.0,12.0,95,0.01,,,0.33,,2013-05-09 07:52:00,
2013-05-09 04:02:00,52.0,51.0,29.92,NW,324,7.0,9.0,95,0.00,,,0.33,,2013-05-09 08:02:00,
2013-05-09 04:11:00,52.0,51.0,29.92,NW,324,7.0,9.0,95,0.00,,,0.33,,2013-05-09 08:11:00,
2013-05-09 04:22:00,52.0,51.0,29.92,SW,230,0.0,7.0,96,0.00,,,0.33,,2013-05-09 08:22:00,
2013-05-09 04:32:00,51.0,50.0,29.91,SW,234,5.0,10.0,96,0.00,,,0.33,,2013-05-09 08:32:00,
2013-05-09 04:42:00,51.0,50.0,29.91,SW,234,5.0,10.0,96,0.00,,,0.33,,2013-05-09 08:42:00,
2013-05-09 04:52:00,51.0,50.0,29.91,SW,234,5.0,10.0,96,0.00,,,0.33,,2013-05-09 08:52:00,
2013-05-09 05:02:00,51.0,50.0,29.92,WNW,297,5.0,9.0,97,0.00,,,0.33,,2013-05-09 09:02:00,
2013-05-09 05:12:00,51.0,50.0,29.92,WNW,297,5.0,9.0,97,0.00,,,0.33,,2013-05-09 09:12:00,
2013-05-09 05:22:00,51.0,50.0,29.93,WNW,299,1.0,10.0,97,0.00,,,0.33,,2013-05-09 09:22:00,
2013-05-09 05:32:00,50.0,49.0,29.92,West,272,4.0,7.0,98,0.00,,,0.32,,2013-05-09 09:32:00,
2013-05-09 05:43:00,50.0,49.0,29.92,West,272,4.0,7.0,98,0.00,,,0.32,,2013-05-09 09:43:00,
2013-05-09 05:53:00,50.0,50.0,29.92,WSW,237,4.0,9.0,99,0.00,,,0.32,,2013-05-09 09:53:00,
2013-05-09 06:02:00,50.0,50.0,29.92,WSW,250,1.0,10.0,99,0.00,,,0.32,,2013-05-09 10:02:00,
2013-05-09 06:12:00,50.0,50.0,29.92,WSW,250,1.0,10.0,99,0.00,,,0.32,,2013-05-09 10:12:00,
2013-05-09 06:23:00,50.0,50.0,29.92,West,263,2.0,6.0,99,0.00,,,0.32,,2013-05-09 10:23:00,
2013-05-09 06:33:00,50.0,50.0,29.93,SW,223,6.0,6.0,100,0.00,,,0.32,,2013-05-09 10:33:00,
2013-05-09 06:42:00,50.0,50.0,29.93,SW,223,6.0,6.0,100,0.00,,,0.32,,2013-05-09 10:42:00,
2013-05-09 06:52:00,50.0,50.0,29.94,SW,227,0.0,6.0,100,0.00,,,0.32,,2013-05-09 10:52:00,
2013-05-09 07:02:00,50.0,50.0,29.95,WNW,296,0.0,7.0,100,0.00,,,0.32,,2013-05-09 11:02:00,
2013-05-09 07:12:00,50.0,50.0,29.95,WNW,296,0.0,7.0,100,0.00,,,0.32,,2013-05-09 11:12:00,
2013-05-09 07:22:00,50.0,50.0,29.95,WNW,296,0.0,7.0,100,0.00,,,0.32,,2013-05-09 11:22:00,
2013-05-09 07:32:00,50.0,50.0,29.95,WNW,296,0.0,7.0,100,0.00,,,0.32,,2013-05-09 11:32:00,
2013-05-09 07:42:00,50.0,50.0,29.95,WNW,296,0.0,7.0,100,0.00,,,0.32,,2013-05-09 11:42:00,
2013-05-09 07:52:00,50.0,50.0,29.97,NW,320,1.0,5.0,100,0.00,,,0.32,,2013-05-09 11:52:00,
2013-05-09 08:02:00,51.0,51.0,29.97,WNW,284,0.0,5.0,100,0.00,,,0.32,,2013-05-09 12:02:00,
2013-05-09 08:12:00,51.0,51.0,29.97,WNW,284,0.0,5.0,100,0.00,,,0.32,,2013-05-09 12:12:00,
2013-05-09 08:22:00,51.0,51.0,29.97,WNW,284,0.0,5.0,100,0.00,,,0.32,,2013-05-09 12:22:00,
2013-05-09 08:32:00,52.0,52.0,29.98,SW,224,6.0,6.0,100,0.00,,,0.32,,2013-05-09 12:32:00,
2013-05-09 08:43:00,52.0,52.0,29.98,SW,224,6.0,6.0,100,0.00,,,0.32,,2013-05-09 12:43:00,
2013-05-09 08:52:00,51.0,51.0,29.99,NW,325,3.0,6.0,100,0.00,,,0.32,,2013-05-09 12:52:00,
2013-05-09 09:02:00,52.0,52.0,29.99,West,281,0.0,5.0,100,0.00,,,0.32,,2013-05-09 13:02:00,
2013-05-09 09:12:00,52.0,52.0,29.99,West,281,0.0,5.0,100,0.00,,,0.32,,2013-05-09 13:12:00,
2013-05-09 09:22:00,52.0,52.0,30.00,NW,314,3.0,10.0,100,0.00,,,0.32,,2013-05-09 13:22:00,
2013-05-09 09:32:00,52.0,52.0,30.01,NW,315,10.0,13.0,100,0.00,,,0.32,,2013-05-09 13:32:00,
2013-05-09 09:42:00,52.0,52.0,30.01,NW,315,10.0,13.0,100,0.00,,,0.32,,2013-05-09 13:42:00,
2013-05-09 09:52:00,52.0,52.0,30.01,NW,315,10.0,13.0,100,0.00,,,0.32,,2013-05-09 13:52:00,
2013-05-09 10:02:00,52.0,52.0,30.01,WNW,299,7.0,10.0,100,0.00,,,0.32,,2013-05-09 14:02:00,
2013-05-09 10:11:00,52.0,52.0,30.01,WNW,299,7.0,10.0,100,0.00,,,0.32,,2013-05-09 14:11:00,
2013-05-09 10:22:00,52.0,52.0,30.01,WNW,295,0.0,10.0,100,0.00,,,0.32,,2013-05-09 14:22:00,
2013-05-09 10:32:00,52.0,52.0,30.01,NNW,342,6.0,11.0,100,0.00,,,0.32,,2013-05-09 14:32:00,
2013-05-09 10:42:00,52.0,52.0,30.01,NNW,342,6.0,11.0,100,0.00,,,0.32,,2013-05-09 14:42:00,
2013-05-09 10:52:00,52.0,52.0,30.01,NW,308,12.0,13.0,100,0.00,,,0.32,,2013-05-09 14:52:00,
2013-05-09 11:02:00,52.0,52.0,30.01,NW,308,12.0,13.0,100,0.00,,,0.32,,2013-05-09 15:02:00,
2013-05-09 11:11:00,52.0,52.0,30.01,NW,308,12.0,13.0,100,0.00,,,0.32,,2013-05-09 15:11:00,
2013-05-09 11:22:00,53.0,53.0,30.01,North,360,4.0,13.0,100,0.02,,,0.34,,2013-05-09 15:22:00,
2013-05-09 11:33:00,53.0,53.0,30.01,North,360,4.0,13.0,100,0.02,,,0.34,,2013-05-09 15:33:00,
2013-05-09 11:43:00,53.0,53.0,30.01,North,360,4.0,13.0,100,0.02,,,0.34,,2013-05-09 15:43:00,
2013-05-09 11:53:00,53.0,53.0,30.01,NW,319,5.0,10.0,100,0.03,,,0.35,,2013-05-09 15:53:00,
2013-05-09 12:03:00,53.0,53.0,30.02,WNW,294,1.0,10.0,100,0.02,,,0.35,,2013-05-09 16:03:00,
2013-05-09 12:12:00,53.0,53.0,30.02,WNW,294,1.0,10.0,100,0.02,,,0.35,,2013-05-09 16:12:00,
2013-05-09 12:23:00,55.0,55.0,30.02,NNW,340,3.0,12.0,100,0.01,,,0.35,,2013-05-09 16:23:00,
2013-05-09 12:33:00,56.0,55.0,30.02,WNW,286,0.0,12.0,97,0.01,,,0.35,,2013-05-09 16:33:00,
2013-05-09 12:42:00,56.0,55.0,30.02,WNW,286,0.0,12.0,97,0.01,,,0.35,,2013-05-09 16:42:00,
2013-05-09 12:52:00,56.0,55.0,30.02,WNW,286,0.0,12.0,97,0.01,,,0.35,,2013-05-09 16:52:00,
2013-05-09 13:02:00,58.0,56.0,30.02,North,9,4.0,13.0,94,0.00,,,0.35,,2013-05-09 17:02:00,
2013-05-09 13:12:00,58.0,56.0,30.02,North,9,4.0,13.0,94,0.00,,,0.35,,2013-05-09 17:12:00,
2013-05-09 13:22:00,58.0,56.0,30.02,North,9,4.0,13.0,94,0.00,,,0.35,,2013-05-09 17:22:00,
2013-05-09 13:32:00,58.0,56.0,30.02,NW,319,10.0,14.0,92,0.00,,,0.35,,2013-05-09 17:32:00,
2013-05-09 13:42:00,58.0,56.0,30.02,NW,319,10.0,14.0,92,0.00,,,0.35,,2013-05-09 17:42:00,
2013-05-09 13:55:00,59.0,56.0,30.02,WSW,252,11.0,16.0,90,0.00,,,0.35,,2013-05-09 17:55:00,
2013-05-09 14:01:00,60.0,56.0,30.01,West,260,2.0,15.0,86,0.00,,,0.35,,2013-05-09 18:01:00,
2013-05-09 14:12:00,60.0,56.0,30.01,West,260,2.0,15.0,86,0.00,,,0.35,,2013-05-09 18:12:00,
2013-05-09 14:22:00,60.0,56.0,30.03,WNW,298,14.0,17.0,87,0.00,,,0.35,,2013-05-09 18:22:00,
2013-05-09 14:32:00,61.0,56.0,30.01,NW,320,5.0,16.0,85,0.00,,,0.35,,2013-05-09 18:32:00,
2013-05-09 14:42:00,61.0,56.0,30.01,NW,320,5.0,16.0,85,0.00,,,0.35,,2013-05-09 18:42:00,
2013-05-09 14:52:00,61.0,56.0,30.01,NW,308,4.0,14.0,85,0.00,,,0.35,,2013-05-09 18:52:00,
2013-05-09 15:01:00,62.0,57.0,30.01,ENE,61,0.0,13.0,85,0.00,,,0.35,,2013-05-09 19:01:00,
2013-05-09 15:12:00,62.0,57.0,30.01,ENE,61,0.0,13.0,85,0.00,,,0.35,,2013-05-09 19:12:00,
2013-05-09 15:21:00,62.0,57.0,30.01,ENE,61,0.0,13.0,85,0.00,,,0.35,,2013-05-09 19:21:00,
2013-05-09 15:32:00,65.0,59.0,30.01,WNW,297,7.0,16.0,80,0.00,,,0.35,,2013-05-09 19:32:00,
2013-05-09 15:42:00,65.0,59.0,30.01,WNW,297,7.0,16.0,80,0.00,,,0.35,,2013-05-09 19:42:00,
2013-05-09 15:52:00,65.0,59.0,30.01,WNW,297,7.0,16.0,80,0.00,,,0.35,,2013-05-09 19:52:00,
2013-05-09 16:01:00,64.0,57.0,30.00,WNW,303,5.0,16.0,77,0.00,,,0.35,,2013-05-09 20:01:00,
2013-05-09 16:10:00,63.0,57.0,30.00,WSW,250,8.0,17.0,80,0.00,,,0.35,,2013-05-09 20:10:00,
2013-05-09 16:11:00,64.0,57.0,30.00,WNW,303,5.0,16.0,77,0.00,,,0.35,,2013-05-09 20:11:00,
2013-05-09 16:22:00,64.0,57.0,30.00,WNW,303,5.0,16.0,77,0.00,,,0.35,,2013-05-09 20:22:00,
2013-05-09 16:32:00,63.0,57.0,30.00,WSW,250,8.0,17.0,80,0.00,,,0.35,,2013-05-09 20:32:00,
2013-05-09 16:42:00,63.0,57.0,30.00,WSW,250,8.0,17.0,80,0.00,,,0.35,,2013-05-09 20:42:00,
2013-05-09 16:52:00,63.0,57.0,30.00,WSW,250,8.0,17.0,80,0.00,,,0.35,,2013-05-09 20:52:00,
2013-05-09 17:02:00,63.0,57.0,30.00,WSW,250,8.0,17.0,80,0.00,,,0.35,,2013-05-09 21:02:00,
2013-05-09 17:22:00,58.0,55.0,30.01,NW,312,0.0,0.0,91,0.04,,,0.39,,2013-05-09 21:22:00,
2013-05-09 17:33:00,58.0,55.0,30.01,NW,312,1.0,3.0,91,0.04,,,0.39,,2013-05-09 21:33:00,
2013-05-09 17:43:00,58.0,55.0,30.01,NW,312,1.0,3.0,91,0.04,,,0.39,,2013-05-09 21:43:00,
2013-05-09 17:52:00,58.0,55.0,30.01,NW,312,1.0,3.0,91,0.04,,,0.39,,2013-05-09 21:52:00,
2013-05-09 18:03:00,64.0,59.0,30.00,NW,316,0.0,1.0,83,0.00,,,0.39,,2013-05-09 22:03:00,
2013-05-09 18:13:00,64.0,59.0,30.00,NW,316,0.0,1.0,83,0.00,,,0.39,,2013-05-09 22:13:00,
2013-05-09 18:23:00,64.0,59.0,30.00,NW,316,0.0,1.0,83,0.00,,,0.39,,2013-05-09 22:23:00,
2013-05-09 18:33:00,64.0,59.0,30.00,NW,316,0.0,1.0,83,0.00,,,0.39,,2013-05-09 22:33:00,
2013-05-09 18:42:00,66.0,57.0,30.00,WSW,249,0.0,9.0,72,0.00,,,0.39,,2013-05-09 22:42:00,
2013-05-09 18:52:00,66.0,57.0,30.00,WSW,249,0.0,9.0,72,0.00,,,0.39,,2013-05-09 22:52:00,
2013-05-09 19:02:00,66.0,57.0,30.00,West,269,1.0,7.0,73,0.00,,,0.39,,2013-05-09 23:02:00,
2013-05-09 19:12:00,66.0,57.0,30.00,West,269,1.0,7.0,73,0.00,,,0.39,,2013-05-09 23:12:00,
2013-05-09 19:22:00,66.0,57.0,30.00,West,269,1.0,7.0,73,0.00,,,0.39,,2013-05-09 23:22:00,
2013-05-09 19:32:00,65.0,56.0,30.00,WSW,244,0.0,2.0,74,0.00,,,0.28,,2013-05-09 23:32:00,
2013-05-09 19:42:00,65.0,56.0,30.00,WSW,244,0.0,2.0,74,0.00,,,0.28,,2013-05-09 23:42:00,
2013-05-09 19:52:00,65.0,56.0,30.00,WSW,244,0.0,2.0,74,0.00,,,0.28,,2013-05-09 23:52:00,
2013-05-09 20:01:00,62.0,56.0,30.01,WSW,244,0.0,0.0,82,0.00,,,0.17,,2013-05-10 00:01:00,
2013-05-09 20:11:00,62.0,56.0,30.01,WSW,244,0.0,0.0,82,0.00,,,0.17,,2013-05-10 00:11:00,
2013-05-09 20:22:00,62.0,56.0,30.01,WSW,244,0.0,0.0,82,0.00,,,0.17,,2013-05-10 00:22:00,
2013-05-09 20:32:00,60.0,56.0,30.01,WSW,244,0.0,3.0,86,0.00,,,0.17,,2013-05-10 00:32:00,
2013-05-09 20:42:00,60.0,56.0,30.01,WSW,244,0.0,3.0,86,0.00,,,0.17,,2013-05-10 00:42:00,
2013-05-09 20:52:00,60.0,56.0,30.01,WSW,244,0.0,3.0,86,0.00,,,0.17,,2013-05-10 00:52:00,
2013-05-09 21:01:00,60.0,56.0,30.01,WSW,244,0.0,3.0,86,0.00,,,0.17,,2013-05-10 01:01:00,
2013-05-09 21:22:00,60.0,55.0,30.03,SW,227,0.0,9.0,84,0.00,,,0.16,,2013-05-10 01:22:00,
2013-05-09 21:32:00,60.0,55.0,30.05,SW,227,0.0,0.0,85,0.00,,,0.14,,2013-05-10 01:32:00,
2013-05-09 21:42:00,60.0,55.0,30.05,SW,227,0.0,0.0,85,0.00,,,0.14,,2013-05-10 01:42:00,
2013-05-09 21:52:00,60.0,55.0,30.05,SW,227,0.0,0.0,85,0.00,,,0.14,,2013-05-10 01:52:00,
2013-05-09 22:02:00,60.0,55.0,30.05,SW,227,0.0,0.0,85,0.00,,,0.14,,2013-05-10 02:02:00,
2013-05-09 22:21:00,59.0,54.0,30.05,WNW,294,2.0,3.0,85,0.00,,,0.09,,2013-05-10 02:21:00,
2013-05-09 22:32:00,59.0,54.0,30.05,WNW,294,2.0,4.0,85,0.00,,,0.09,,2013-05-10 02:32:00,
2013-05-09 22:42:00,59.0,54.0,30.05,West,261,0.0,0.0,84,0.00,,,0.09,,2013-05-10 02:42:00,
2013-05-09 22:52:00,59.0,54.0,30.05,West,261,0.0,0.0,84,0.00,,,0.09,,2013-05-10 02:52:00,
2013-05-09 23:01:00,59.0,54.0,30.04,WSW,246,2.0,4.0,84,0.00,,,0.09,,2013-05-10 03:01:00,
2013-05-09 23:11:00,59.0,54.0,30.04,WSW,246,2.0,4.0,84,0.00,,,0.09,,2013-05-10 03:11:00,
2013-05-09 23:22:00,58.0,53.0,30.05,WSW,246,0.0,3.0,84,0.00,,,0.09,,2013-05-10 03:22:00,
2013-05-09 23:33:00,58.0,54.0,30.04,WSW,246,0.0,0.0,85,0.00,,,0.09,,2013-05-10 03:33:00,
2013-05-09 23:43:00,58.0,54.0,30.04,WSW,246,0.0,0.0,85,0.00,,,0.09,,2013-05-10 03:43:00,
2013-05-09 23:53:00,58.0,54.0,30.04,WSW,246,0.0,0.0,85,0.00,,,0.09,,2013-05-10 03:53:00,